Time,TemperatureF,DewpointF,PressureIn,WindDirection,WindDirectionDegrees,WindSpeedMPH,WindSpeedGustMPH,Humidity,HourlyPrecipIn,Conditions,Clouds,dailyrainin,SoftwareType,DateUTC
2013-02-13 00:01:00,33.1,13.9,30.35,NW,315,0.0,0.0,45,0.00,,,0.00,WUHU21623XXSP,2013-02-13 08:01:00,
2013-02-13 00:06:00,32.9,13.7,30.35,WNW,292,0.0,0.0,45,0.00,,,0.00,WUHU21623XXSP,2013-02-13 08:06:00,
2013-02-13 00:11:00,32.9,13.7,30.35,NNW,337,0.0,0.0,45,0.00,,,0.00,WUHU21623XXSP,2013-02-13 08:11:00,
2013-02-13 00:16:00,33.1,14.4,30.36,NNW,337,2.0,2.0,46,0.00,,,0.00,WUHU21623XXSP,2013-02-13 08:16:00,
2013-02-13 00:21:00,33.3,14.6,30.36,WNW,292,0.0,2.2,46,0.00,,,0.00,WUHU21623XXSP,2013-02-13 08:21:00,
2013-02-13 00:26:00,33.4,14.7,30.36,WNW,292,0.0,2.2,46,0.00,,,0.00,WUHU21623XXSP,2013-02-13 08:26:00,
2013-02-13 00:31:00,33.6,14.9,30.35,WNW,292,0.0,1.6,46,0.00,,,0.00,WUHU21623XXSP,2013-02-13 08:31:00,
2013-02-13 00:36:00,33.6,14.9,30.35,North,0,0.0,1.6,46,0.00,,,0.00,WUHU21623XXSP,2013-02-13 08:36:00,
2013-02-13 00:41:00,33.6,14.9,30.35,WNW,292,0.0,0.0,46,0.00,,,0.00,WUHU21623XXSP,2013-02-13 08:41:00,
2013-02-13 00:46:00,33.4,14.7,30.34,WNW,292,0.0,0.0,46,0.00,,,0.00,WUHU21623XXSP,2013-02-13 08:46:00,
2013-02-13 00:51:00,33.1,14.4,30.35,WNW,292,0.0,0.0,46,0.00,,,0.00,WUHU21623XXSP,2013-02-13 08:51:00,
2013-02-13 00:56:00,32.9,14.7,30.35,East,90,0.0,0.0,47,0.00,,,0.00,WUHU21623XXSP,2013-02-13 08:56:00,
2013-02-13 01:01:00,32.9,14.7,30.34,East,90,0.0,0.0,47,0.00,,,0.00,WUHU21623XXSP,2013-02-13 09:01:00,
2013-02-13 01:06:00,32.7,14.6,30.34,NE,45,0.0,0.0,47,0.00,,,0.00,WUHU21623XXSP,2013-02-13 09:06:00,
2013-02-13 01:11:00,32.4,14.3,30.34,North,0,0.0,0.0,47,0.00,,,0.00,WUHU21623XXSP,2013-02-13 09:11:00,
2013-02-13 01:16:00,32.2,14.6,30.34,NW,315,0.0,0.0,48,0.00,,,0.00,WUHU21623XXSP,2013-02-13 09:16:00,
2013-02-13 01:21:00,32.0,14.4,30.34,NW,315,0.0,0.0,48,0.00,,,0.00,WUHU21623XXSP,2013-02-13 09:21:00,
2013-02-13 01:26:00,31.8,14.3,30.34,North,0,0.0,0.0,48,0.00,,,0.00,WUHU21623XXSP,2013-02-13 09:26:00,
2013-02-13 01:31:00,31.6,14.1,30.34,NW,315,0.0,0.0,48,0.00,,,0.00,WUHU21623XXSP,2013-02-13 09:31:00,
2013-02-13 01:36:00,31.6,14.6,30.34,NW,315,0.0,0.0,49,0.00,,,0.00,WUHU21623XXSP,2013-02-13 09:36:00,
2013-02-13 01:41:00,31.3,14.3,30.34,WNW,292,0.0,0.0,49,0.00,,,0.00,WUHU21623XXSP,2013-02-13 09:41:00,
2013-02-13 01:46:00,31.3,14.3,30.34,WNW,292,0.0,0.0,49,0.00,,,0.00,WUHU21623XXSP,2013-02-13 09:46:00,
2013-02-13 01:51:00,31.3,14.3,30.34,West,270,0.0,0.0,49,0.00,,,0.00,WUHU21623XXSP,2013-02-13 09:51:00,
2013-02-13 01:56:00,31.3,14.8,30.34,West,270,0.0,0.0,50,0.00,,,0.00,WUHU21623XXSP,2013-02-13 09:56:00,
2013-02-13 02:02:00,31.3,14.8,30.34,WNW,292,0.0,0.0,50,0.00,,,0.00,WUHU21623XXSP,2013-02-13 10:02:00,
2013-02-13 02:07:00,31.3,14.8,30.34,West,270,0.0,2.2,50,0.00,,,0.00,WUHU21623XXSP,2013-02-13 10:07:00,
2013-02-13 02:12:00,31.3,15.2,30.33,West,270,0.0,2.2,51,0.00,,,0.00,WUHU21623XXSP,2013-02-13 10:12:00,
2013-02-13 02:17:00,31.5,15.4,30.33,NNW,337,0.0,0.0,51,0.00,,,0.00,WUHU21623XXSP,2013-02-13 10:17:00,
2013-02-13 02:22:00,31.6,15.5,30.34,WNW,292,0.0,0.0,51,0.00,,,0.00,WUHU21623XXSP,2013-02-13 10:22:00,
2013-02-13 02:27:00,31.8,15.5,30.34,NNW,337,0.0,2.5,52,0.00,,,0.00,WUHU21623XXSP,2013-02-13 10:27:00,
2013-02-13 02:32:00,31.8,16.1,30.33,NNW,337,2.7,2.7,52,0.00,,,0.00,WUHU21623XXSP,2013-02-13 10:32:00,
2013-02-13 02:37:00,32.5,17.2,30.34,WNW,292,0.0,3.8,53,0.00,,,0.00,WUHU21623XXSP,2013-02-13 10:37:00,
2013-02-13 02:42:00,32.7,17.4,30.34,NW,315,0.0,3.8,53,0.00,,,0.00,WUHU21623XXSP,2013-02-13 10:42:00,
2013-02-13 02:47:00,32.7,17.0,30.34,NW,315,0.0,0.0,52,0.00,,,0.00,WUHU21623XXSP,2013-02-13 10:47:00,
2013-02-13 02:52:00,32.7,17.0,30.34,NE,45,0.0,0.0,52,0.00,,,0.00,WUHU21623XXSP,2013-02-13 10:52:00,
2013-02-13 02:57:00,32.5,16.8,30.34,WNW,292,0.0,0.0,52,0.00,,,0.00,WUHU21623XXSP,2013-02-13 10:57:00,
2013-02-13 03:02:00,32.2,16.5,30.33,West,270,0.0,0.0,52,0.00,,,0.00,WUHU21623XXSP,2013-02-13 11:02:00,
2013-02-13 03:07:00,32.2,16.5,30.33,ENE,67,0.0,0.0,52,0.00,,,0.00,WUHU21623XXSP,2013-02-13 11:07:00,
2013-02-13 03:12:00,31.8,16.1,30.32,SSW,202,0.0,0.0,52,0.00,,,0.00,WUHU21623XXSP,2013-02-13 11:12:00,
2013-02-13 03:17:00,31.8,16.1,30.33,ESE,112,0.0,0.0,52,0.00,,,0.00,WUHU21623XXSP,2013-02-13 11:17:00,
2013-02-13 03:22:00,31.6,16.0,30.33,ENE,67,0.0,0.0,52,0.00,,,0.00,WUHU21623XXSP,2013-02-13 11:22:00,
2013-02-13 03:27:00,31.3,15.6,30.33,NNE,22,0.0,0.0,52,0.00,,,0.00,WUHU21623XXSP,2013-02-13 11:27:00,
2013-02-13 03:32:00,31.3,15.6,30.32,NNE,22,0.0,0.0,52,0.00,,,0.00,WUHU21623XXSP,2013-02-13 11:32:00,
2013-02-13 03:37:00,31.3,16.1,30.32,West,270,0.0,0.0,53,0.00,,,0.00,WUHU21623XXSP,2013-02-13 11:37:00,
2013-02-13 03:42:00,31.1,15.9,30.33,WNW,292,0.0,0.9,53,0.00,,,0.00,WUHU21623XXSP,2013-02-13 11:42:00,
2013-02-13 03:56:00,30.7,16.0,30.33,WNW,292,0.0,0.0,54,0.00,,,0.00,WUHU21623XXSP,2013-02-13 11:56:00,
2013-02-13 04:01:00,30.7,16.0,30.33,NW,315,0.0,0.0,54,0.00,,,0.00,WUHU21623XXSP,2013-02-13 12:01:00,
2013-02-13 04:06:00,30.9,16.6,30.32,ENE,67,0.0,0.0,55,0.00,,,0.00,WUHU21623XXSP,2013-02-13 12:06:00,
2013-02-13 04:11:00,30.9,16.6,30.32,East,90,0.0,0.0,55,0.00,,,0.00,WUHU21623XXSP,2013-02-13 12:11:00,
2013-02-13 04:16:00,30.9,16.6,30.32,NE,45,0.0,0.0,55,0.00,,,0.00,WUHU21623XXSP,2013-02-13 12:16:00,
2013-02-13 04:21:00,30.9,16.6,30.32,WNW,292,0.0,0.0,55,0.00,,,0.00,WUHU21623XXSP,2013-02-13 12:21:00,
2013-02-13 04:26:00,30.6,16.2,30.32,West,270,0.0,0.0,55,0.00,,,0.00,WUHU21623XXSP,2013-02-13 12:26:00,
2013-02-13 04:31:00,30.4,16.1,30.32,West,270,1.3,1.3,55,0.00,,,0.00,WUHU21623XXSP,2013-02-13 12:31:00,
2013-02-13 04:36:00,30.2,15.9,30.33,WNW,292,0.0,1.3,55,0.00,,,0.00,WUHU21623XXSP,2013-02-13 12:36:00,
2013-02-13 04:41:00,30.0,15.7,30.32,NNW,337,0.0,0.0,55,0.00,,,0.00,WUHU21623XXSP,2013-02-13 12:41:00,
2013-02-13 04:46:00,30.0,16.1,30.33,West,270,0.0,0.0,56,0.00,,,0.00,WUHU21623XXSP,2013-02-13 12:46:00,
2013-02-13 04:51:00,29.8,16.0,30.33,NW,315,0.0,0.0,56,0.00,,,0.00,WUHU21623XXSP,2013-02-13 12:51:00,
2013-02-13 04:56:00,29.8,16.0,30.33,NW,315,0.0,0.0,56,0.00,,,0.00,WUHU21623XXSP,2013-02-13 12:56:00,
2013-02-13 05:01:00,29.8,16.0,30.34,WNW,292,0.0,0.0,56,0.00,,,0.00,WUHU21623XXSP,2013-02-13 13:01:00,
2013-02-13 05:06:00,29.8,16.4,30.34,NW,315,0.0,0.0,57,0.00,,,0.00,WUHU21623XXSP,2013-02-13 13:06:00,
2013-02-13 05:11:00,29.8,16.4,30.33,NNW,337,1.6,1.6,57,0.00,,,0.00,WUHU21623XXSP,2013-02-13 13:11:00,
2013-02-13 05:16:00,30.0,17.0,30.33,NW,315,0.0,1.6,58,0.00,,,0.00,WUHU21623XXSP,2013-02-13 13:16:00,
2013-02-13 05:21:00,30.0,17.0,30.33,ENE,67,0.0,0.0,58,0.00,,,0.00,WUHU21623XXSP,2013-02-13 13:21:00,
2013-02-13 05:26:00,30.0,17.0,30.33,NW,315,0.0,0.0,58,0.00,,,0.00,WUHU21623XXSP,2013-02-13 13:26:00,
2013-02-13 05:31:00,30.0,17.0,30.32,NNW,337,0.0,0.0,58,0.00,,,0.00,WUHU21623XXSP,2013-02-13 13:31:00,
2013-02-13 05:36:00,29.8,16.8,30.33,NNW,337,1.6,1.6,58,0.00,,,0.00,WUHU21623XXSP,2013-02-13 13:36:00,
2013-02-13 05:41:00,30.0,17.0,30.32,West,270,0.0,1.6,58,0.00,,,0.00,WUHU21623XXSP,2013-02-13 13:41:00,
2013-02-13 05:46:00,30.4,17.3,30.32,WNW,292,0.9,1.3,58,0.00,,,0.00,WUHU21623XXSP,2013-02-13 13:46:00,
2013-02-13 05:51:00,30.6,17.5,30.33,NW,315,0.9,1.3,58,0.00,,,0.00,WUHU21623XXSP,2013-02-13 13:51:00,
2013-02-13 05:56:00,30.7,17.7,30.34,WSW,247,0.0,0.9,58,0.00,,,0.00,WUHU21623XXSP,2013-02-13 13:56:00,
2013-02-13 06:01:00,30.7,17.7,30.34,ESE,112,0.0,0.0,58,0.00,,,0.00,WUHU21623XXSP,2013-02-13 14:01:00,
2013-02-13 06:06:00,30.7,17.7,30.33,ESE,112,0.0,0.0,58,0.00,,,0.00,WUHU21623XXSP,2013-02-13 14:06:00,
2013-02-13 06:12:00,30.7,17.7,30.34,WNW,292,0.0,0.0,58,0.00,,,0.00,WUHU21623XXSP,2013-02-13 14:12:00,
2013-02-13 06:17:00,30.4,17.3,30.33,NW,315,0.0,0.0,58,0.00,,,0.00,WUHU21623XXSP,2013-02-13 14:17:00,
2013-02-13 06:22:00,30.0,17.0,30.34,NW,315,0.0,0.0,58,0.00,,,0.00,WUHU21623XXSP,2013-02-13 14:22:00,
2013-02-13 06:27:00,30.0,17.0,30.34,ESE,112,0.0,0.0,58,0.00,,,0.00,WUHU21623XXSP,2013-02-13 14:27:00,
2013-02-13 06:32:00,30.0,17.0,30.34,NE,45,0.0,0.0,58,0.00,,,0.00,WUHU21623XXSP,2013-02-13 14:32:00,
2013-02-13 06:37:00,30.0,17.0,30.34,NW,315,0.0,0.0,58,0.00,,,0.00,WUHU21623XXSP,2013-02-13 14:37:00,
2013-02-13 06:42:00,29.8,17.2,30.34,East,90,0.0,0.0,59,0.00,,,0.00,WUHU21623XXSP,2013-02-13 14:42:00,
2013-02-13 06:47:00,30.0,17.4,30.34,ENE,67,0.0,0.0,59,0.00,,,0.00,WUHU21623XXSP,2013-02-13 14:47:00,
2013-02-13 06:52:00,30.0,17.4,30.35,North,0,0.0,0.0,59,0.00,,,0.00,WUHU21623XXSP,2013-02-13 14:52:00,
2013-02-13 06:57:00,29.8,17.2,30.35,NNW,337,0.0,0.0,59,0.00,,,0.00,WUHU21623XXSP,2013-02-13 14:57:00,
2013-02-13 07:02:00,30.0,17.4,30.34,WNW,292,0.0,0.0,59,0.00,,,0.00,WUHU21623XXSP,2013-02-13 15:02:00,
2013-02-13 07:07:00,30.0,17.4,30.34,NW,315,0.0,0.0,59,0.00,,,0.00,WUHU21623XXSP,2013-02-13 15:07:00,
2013-02-13 07:12:00,30.4,18.1,30.34,WNW,292,0.0,0.0,60,0.00,,,0.00,WUHU21623XXSP,2013-02-13 15:12:00,
2013-02-13 07:17:00,30.7,18.5,30.35,WSW,247,0.0,0.0,60,0.00,,,0.00,WUHU21623XXSP,2013-02-13 15:17:00,
2013-02-13 07:22:00,31.1,18.9,30.35,North,0,0.0,0.0,60,0.00,,,0.00,WUHU21623XXSP,2013-02-13 15:22:00,
2013-02-13 07:27:00,31.3,19.0,30.36,West,270,0.0,0.0,60,0.00,,,0.00,WUHU21623XXSP,2013-02-13 15:27:00,
2013-02-13 07:32:00,31.8,19.6,30.36,NW,315,0.0,0.0,60,0.00,,,0.00,WUHU21623XXSP,2013-02-13 15:32:00,
2013-02-13 07:37:00,32.7,20.4,30.36,West,270,0.0,0.0,60,0.00,,,0.00,WUHU21623XXSP,2013-02-13 15:37:00,
2013-02-13 07:42:00,33.1,20.7,30.36,NW,315,0.0,0.0,60,0.00,,,0.00,WUHU21623XXSP,2013-02-13 15:42:00,
2013-02-13 07:47:00,33.6,21.6,30.36,West,270,0.0,0.0,61,0.00,,,0.00,WUHU21623XXSP,2013-02-13 15:47:00,
2013-02-13 07:52:00,34.5,22.5,30.36,WNW,292,0.0,0.0,61,0.00,,,0.00,WUHU21623XXSP,2013-02-13 15:52:00,
2013-02-13 07:57:00,35.2,22.8,30.36,North,0,0.0,0.0,60,0.00,,,0.00,WUHU21623XXSP,2013-02-13 15:57:00,
2013-02-13 08:02:00,35.8,23.3,30.36,West,270,0.0,0.0,60,0.00,,,0.00,WUHU21623XXSP,2013-02-13 16:02:00,
2013-02-13 08:07:00,36.7,24.2,30.36,SW,225,0.0,0.0,60,0.00,,,0.00,WUHU21623XXSP,2013-02-13 16:07:00,
2013-02-13 08:12:00,37.2,24.6,30.36,WNW,292,0.0,0.0,60,0.00,,,0.00,WUHU21623XXSP,2013-02-13 16:12:00,
2013-02-13 08:17:00,37.9,24.9,30.36,WSW,247,0.0,0.0,59,0.00,,,0.00,WUHU21623XXSP,2013-02-13 16:17:00,
2013-02-13 08:22:00,39.0,25.8,30.37,SSW,202,0.0,0.0,59,0.00,,,0.00,WUHU21623XXSP,2013-02-13 16:22:00,
2013-02-13 08:27:00,39.7,26.5,30.37,South,180,1.1,1.1,59,0.00,,,0.00,WUHU21623XXSP,2013-02-13 16:27:00,
2013-02-13 08:32:00,40.6,27.0,30.37,SE,135,0.0,1.1,58,0.00,,,0.00,WUHU21623XXSP,2013-02-13 16:32:00,
2013-02-13 08:37:00,41.7,27.5,30.37,SSE,157,0.0,0.0,57,0.00,,,0.00,WUHU21623XXSP,2013-02-13 16:37:00,
2013-02-13 08:42:00,42.4,27.8,30.37,East,90,0.9,1.1,56,0.00,,,0.00,WUHU21623XXSP,2013-02-13 16:42:00,
2013-02-13 08:48:00,43.5,27.6,30.36,SE,135,2.0,2.0,54,0.00,,,0.00,WUHU21623XXSP,2013-02-13 16:48:00,
2013-02-13 08:53:00,44.2,27.8,30.37,SE,135,2.0,2.0,53,0.00,,,0.00,WUHU21623XXSP,2013-02-13 16:53:00,
2013-02-13 08:58:00,45.0,28.4,30.36,ESE,112,0.0,2.0,52,0.00,,,0.00,WUHU21623XXSP,2013-02-13 16:58:00,
2013-02-13 09:03:00,46.0,28.4,30.36,ESE,112,2.9,2.9,50,0.00,,,0.00,WUHU21623XXSP,2013-02-13 17:03:00,
2013-02-13 09:08:00,46.6,28.4,30.36,SE,135,3.8,3.8,49,0.00,,,0.00,WUHU21623XXSP,2013-02-13 17:08:00,
2013-02-13 09:13:00,47.1,28.3,30.36,SSE,157,4.7,4.7,48,0.00,,,0.00,WUHU21623XXSP,2013-02-13 17:13:00,
2013-02-13 09:18:00,48.0,27.0,30.37,ESE,112,7.4,7.4,44,0.00,,,0.00,WUHU21623XXSP,2013-02-13 17:18:00,
2013-02-13 09:23:00,48.7,27.1,30.36,ESE,112,6.9,12.8,43,0.00,,,0.00,WUHU21623XXSP,2013-02-13 17:23:00,
2013-02-13 09:28:00,49.3,27.1,30.36,SE,135,9.8,12.8,42,0.00,,,0.00,WUHU21623XXSP,2013-02-13 17:28:00,
2013-02-13 09:33:00,49.8,26.3,30.36,SE,135,7.2,9.8,40,0.00,,,0.00,WUHU21623XXSP,2013-02-13 17:33:00,
2013-02-13 09:38:00,50.4,26.9,30.36,SE,135,4.3,9.2,40,0.00,,,0.00,WUHU21623XXSP,2013-02-13 17:38:00,
2013-02-13 09:43:00,50.7,26.4,30.36,SE,135,4.3,4.7,39,0.00,,,0.00,WUHU21623XXSP,2013-02-13 17:43:00,
2013-02-13 09:48:00,51.4,26.9,30.36,ENE,67,4.0,9.2,39,0.00,,,0.00,WUHU21623XXSP,2013-02-13 17:48:00,
2013-02-13 09:53:00,51.6,27.4,30.36,SE,135,3.8,9.2,39,0.00,,,0.00,WUHU21623XXSP,2013-02-13 17:53:00,
2013-02-13 09:58:00,52.0,26.2,30.36,SE,135,3.8,3.8,38,0.00,,,0.00,WUHU21623XXSP,2013-02-13 17:58:00,
2013-02-13 10:03:00,52.5,26.1,30.36,ESE,112,3.4,15.4,36,0.00,,,0.00,WUHU21623XXSP,2013-02-13 18:03:00,
2013-02-13 10:08:00,52.9,26.5,30.36,SW,225,5.1,15.4,36,0.00,,,0.00,WUHU21623XXSP,2013-02-13 18:08:00,
2013-02-13 10:13:00,53.2,26.1,30.36,NNE,22,6.9,6.9,35,0.00,,,0.00,WUHU21623XXSP,2013-02-13 18:13:00,
2013-02-13 10:18:00,53.4,25.6,30.36,ENE,67,10.1,10.1,34,0.00,,,0.00,WUHU21623XXSP,2013-02-13 18:18:00,
2013-02-13 10:23:00,53.8,24.9,30.36,NE,45,8.1,10.1,33,0.00,,,0.00,WUHU21623XXSP,2013-02-13 18:23:00,
2013-02-13 10:28:00,54.1,25.5,30.36,ENE,67,4.7,8.1,33,0.00,,,0.00,WUHU21623XXSP,2013-02-13 18:28:00,
2013-02-13 10:33:00,54.3,24.9,30.36,SSW,202,5.1,10.5,32,0.00,,,0.00,WUHU21623XXSP,2013-02-13 18:33:00,
2013-02-13 10:38:00,54.7,25.3,30.36,WSW,247,1.1,10.5,32,0.00,,,0.00,WUHU21623XXSP,2013-02-13 18:38:00,
2013-02-13 10:43:00,55.2,25.0,30.36,ENE,67,9.4,10.5,31,0.00,,,0.00,WUHU21623XXSP,2013-02-13 18:43:00,
2013-02-13 10:48:00,55.4,25.0,30.36,SE,135,5.4,9.4,32,0.00,,,0.00,WUHU21623XXSP,2013-02-13 18:48:00,
2013-02-13 10:53:00,55.9,25.6,30.36,ENE,67,9.2,9.2,31,0.00,,,0.00,WUHU21623XXSP,2013-02-13 18:53:00,
2013-02-13 10:58:00,56.1,25.8,30.36,NNE,22,2.9,9.2,31,0.00,,,0.00,WUHU21623XXSP,2013-02-13 18:58:00,
2013-02-13 11:03:00,56.5,26.0,30.36,NNE,22,2.9,6.3,30,0.00,,,0.00,WUHU21623XXSP,2013-02-13 19:03:00,
2013-02-13 11:08:00,56.5,25.4,30.35,ESE,112,5.6,5.6,30,0.00,,,0.00,WUHU21623XXSP,2013-02-13 19:08:00,
2013-02-13 11:13:00,57.0,25.9,30.35,NE,45,0.9,8.9,30,0.00,,,0.00,WUHU21623XXSP,2013-02-13 19:13:00,
2013-02-13 11:18:00,57.0,25.9,30.35,ESE,112,2.2,8.9,30,0.00,,,0.00,WUHU21623XXSP,2013-02-13 19:18:00,
2013-02-13 11:23:00,57.0,25.9,30.35,SSE,157,4.7,7.6,30,0.00,,,0.00,WUHU21623XXSP,2013-02-13 19:23:00,
2013-02-13 11:29:00,57.4,25.3,30.34,North,0,5.6,7.6,29,0.00,,,0.00,WUHU21623XXSP,2013-02-13 19:29:00,
2013-02-13 11:34:00,57.7,25.6,30.35,North,0,0.0,5.6,29,0.00,,,0.00,WUHU21623XXSP,2013-02-13 19:34:00,
2013-02-13 11:39:00,57.9,25.7,30.34,SSE,157,5.4,7.6,29,0.00,,,0.00,WUHU21623XXSP,2013-02-13 19:39:00,
2013-02-13 11:44:00,57.9,25.7,30.34,East,90,8.9,10.3,29,0.00,,,0.00,WUHU21623XXSP,2013-02-13 19:44:00,
2013-02-13 11:49:00,58.1,25.7,30.34,NNW,337,5.1,10.3,28,0.00,,,0.00,WUHU21623XXSP,2013-02-13 19:49:00,
2013-02-13 11:54:00,58.1,24.9,30.34,NE,45,8.5,8.5,28,0.00,,,0.00,WUHU21623XXSP,2013-02-13 19:54:00,
2013-02-13 11:59:00,58.1,25.1,30.34,East,90,4.5,8.5,28,0.00,,,0.00,WUHU21623XXSP,2013-02-13 19:59:00,
2013-02-13 12:04:00,58.3,25.1,30.34,NE,45,4.3,9.6,28,0.00,,,0.00,WUHU21623XXSP,2013-02-13 20:04:00,
2013-02-13 12:09:00,58.6,25.4,30.34,East,90,6.3,9.6,28,0.00,,,0.00,WUHU21623XXSP,2013-02-13 20:09:00,
2013-02-13 12:14:00,58.6,25.4,30.34,ENE,67,0.0,9.2,28,0.00,,,0.00,WUHU21623XXSP,2013-02-13 20:14:00,
2013-02-13 12:19:00,58.8,25.6,30.34,ESE,112,4.7,6.3,28,0.00,,,0.00,WUHU21623XXSP,2013-02-13 20:19:00,
2013-02-13 12:24:00,59.4,26.0,30.33,WSW,247,0.0,4.7,28,0.00,,,0.00,WUHU21623XXSP,2013-02-13 20:24:00,
2013-02-13 12:29:00,59.5,25.2,30.33,SE,135,6.5,6.5,27,0.00,,,0.00,WUHU21623XXSP,2013-02-13 20:29:00,
2013-02-13 12:34:00,59.7,25.4,30.33,ESE,112,4.7,6.5,27,0.00,,,0.00,WUHU21623XXSP,2013-02-13 20:34:00,
2013-02-13 12:39:00,59.9,25.5,30.33,ESE,112,2.9,4.7,27,0.00,,,0.00,WUHU21623XXSP,2013-02-13 20:39:00,
2013-02-13 12:44:00,59.9,24.5,30.33,ESE,112,1.1,8.1,26,0.00,,,0.00,WUHU21623XXSP,2013-02-13 20:44:00,
2013-02-13 12:49:00,60.1,24.7,30.33,ESE,112,6.7,8.1,26,0.00,,,0.00,WUHU21623XXSP,2013-02-13 20:49:00,
2013-02-13 12:54:00,60.4,25.0,30.34,ESE,112,7.6,7.6,26,0.00,,,0.00,WUHU21623XXSP,2013-02-13 20:54:00,
2013-02-13 12:59:00,60.4,25.0,30.33,ESE,112,2.2,7.6,26,0.00,,,0.00,WUHU21623XXSP,2013-02-13 20:59:00,
2013-02-13 13:04:00,60.6,25.1,30.33,SE,135,5.4,6.9,26,0.00,,,0.00,WUHU21623XXSP,2013-02-13 21:04:00,
2013-02-13 13:09:00,61.0,24.5,30.34,SE,135,7.2,7.2,25,0.00,,,0.00,WUHU21623XXSP,2013-02-13 21:09:00,
2013-02-13 13:14:00,61.2,24.7,30.34,ENE,67,6.3,11.9,25,0.00,,,0.00,WUHU21623XXSP,2013-02-13 21:14:00,
2013-02-13 13:19:00,61.2,24.7,30.33,NE,45,5.8,11.9,25,0.00,,,0.00,WUHU21623XXSP,2013-02-13 21:19:00,
2013-02-13 13:24:00,61.2,24.7,30.34,East,90,6.7,6.7,25,0.00,,,0.00,WUHU21623XXSP,2013-02-13 21:24:00,
2013-02-13 13:29:00,61.2,24.7,30.34,North,0,7.4,7.4,25,0.00,,,0.00,WUHU21623XXSP,2013-02-13 21:29:00,
2013-02-13 13:34:00,61.3,24.8,30.34,East,90,7.4,8.9,25,0.00,,,0.00,WUHU21623XXSP,2013-02-13 21:34:00,
2013-02-13 13:39:00,61.3,24.8,30.33,SE,135,9.2,9.2,25,0.00,,,0.00,WUHU21623XXSP,2013-02-13 21:39:00,
2013-02-13 13:44:00,61.9,26.2,30.33,SSW,202,5.1,9.8,26,0.00,,,0.00,WUHU21623XXSP,2013-02-13 21:44:00,
2013-02-13 13:49:00,62.4,26.7,30.32,ESE,112,4.3,9.8,26,0.00,,,0.00,WUHU21623XXSP,2013-02-13 21:49:00,
2013-02-13 13:54:00,62.6,25.9,30.33,ESE,112,5.4,8.1,25,0.00,,,0.00,WUHU21623XXSP,2013-02-13 21:54:00,
2013-02-13 13:59:00,62.6,24.9,30.32,NNE,22,2.0,5.4,24,0.00,,,0.00,WUHU21623XXSP,2013-02-13 21:59:00,
2013-02-13 14:05:00,62.4,24.7,30.32,North,0,2.7,4.5,24,0.00,,,0.00,WUHU21623XXSP,2013-02-13 22:05:00,
2013-02-13 14:10:00,62.4,25.7,30.32,NE,45,8.1,8.1,25,0.00,,,0.00,WUHU21623XXSP,2013-02-13 22:10:00,
2013-02-13 14:15:00,62.6,24.9,30.32,NE,45,2.9,9.6,24,0.00,,,0.00,WUHU21623XXSP,2013-02-13 22:15:00,
2013-02-13 14:20:00,62.8,25.1,30.31,SSE,157,0.0,9.6,24,0.00,,,0.00,WUHU21623XXSP,2013-02-13 22:20:00,
2013-02-13 14:25:00,63.0,24.2,30.32,NE,45,6.0,8.1,23,0.00,,,0.00,WUHU21623XXSP,2013-02-13 22:25:00,
2013-02-13 14:30:00,62.8,24.1,30.31,East,90,7.2,7.2,23,0.00,,,0.00,WUHU21623XXSP,2013-02-13 22:30:00,
2013-02-13 14:35:00,62.4,21.8,30.31,NNE,22,2.9,10.5,21,0.00,,,0.00,WUHU21623XXSP,2013-02-13 22:35:00,
2013-02-13 14:40:00,62.4,21.8,30.31,NE,45,0.0,10.5,21,0.00,,,0.00,WUHU21623XXSP,2013-02-13 22:40:00,
2013-02-13 14:45:00,62.2,23.6,30.31,ESE,112,4.7,9.6,23,0.00,,,0.00,WUHU21623XXSP,2013-02-13 22:45:00,
2013-02-13 14:50:00,62.2,23.6,30.31,ESE,112,5.4,8.3,23,0.00,,,0.00,WUHU21623XXSP,2013-02-13 22:50:00,
2013-02-13 14:55:00,62.4,23.8,30.31,SSE,157,4.3,6.3,23,0.00,,,0.00,WUHU21623XXSP,2013-02-13 22:55:00,
2013-02-13 15:00:00,62.4,23.8,30.31,SSE,157,1.8,6.5,23,0.00,,,0.00,WUHU21623XXSP,2013-02-13 23:00:00,
2013-02-13 15:05:00,62.4,23.8,30.31,East,90,7.4,7.4,23,0.00,,,0.00,WUHU21623XXSP,2013-02-13 23:05:00,
2013-02-13 15:10:00,62.4,23.8,30.31,NE,45,3.6,7.4,23,0.00,,,0.00,WUHU21623XXSP,2013-02-13 23:10:00,
2013-02-13 15:15:00,62.6,23.9,30.32,East,90,8.3,8.7,23,0.00,,,0.00,WUHU21623XXSP,2013-02-13 23:15:00,
2013-02-13 15:20:00,62.6,23.9,30.32,East,90,5.1,8.7,23,0.00,,,0.00,WUHU21623XXSP,2013-02-13 23:20:00,
2013-02-13 15:25:00,62.4,23.8,30.31,SSE,157,0.0,6.3,23,0.00,,,0.00,WUHU21623XXSP,2013-02-13 23:25:00,
2013-02-13 15:30:00,62.4,21.8,30.32,NNE,22,5.1,10.3,21,0.00,,,0.00,WUHU21623XXSP,2013-02-13 23:30:00,
2013-02-13 15:35:00,62.4,21.8,30.31,NNE,22,2.7,10.3,21,0.00,,,0.00,WUHU21623XXSP,2013-02-13 23:35:00,
2013-02-13 15:40:00,62.4,22.8,30.31,SE,135,3.8,3.8,22,0.00,,,0.00,WUHU21623XXSP,2013-02-13 23:40:00,
2013-02-13 15:45:00,62.2,23.6,30.31,ENE,67,3.1,6.0,23,0.00,,,0.00,WUHU21623XXSP,2013-02-13 23:45:00,
2013-02-13 15:50:00,62.4,24.7,30.32,East,90,3.4,6.0,24,0.00,,,0.00,WUHU21623XXSP,2013-02-13 23:50:00,
2013-02-13 15:55:00,62.4,23.8,30.32,South,180,3.6,4.0,23,0.00,,,0.00,WUHU21623XXSP,2013-02-13 23:55:00,
2013-02-13 16:00:00,62.8,24.1,30.31,NNE,22,1.8,4.0,23,0.00,,,0.00,WUHU21623XXSP,2013-02-14 00:00:00,
2013-02-13 16:05:00,62.4,22.8,30.31,ESE,112,3.4,3.4,22,0.00,,,0.00,WUHU21623XXSP,2013-02-14 00:05:00,
2013-02-13 16:10:00,62.4,24.7,30.31,ESE,112,3.8,3.8,24,0.00,,,0.00,WUHU21623XXSP,2013-02-14 00:10:00,
2013-02-13 16:15:00,62.8,25.1,30.31,East,90,6.9,6.9,24,0.00,,,0.00,WUHU21623XXSP,2013-02-14 00:15:00,
2013-02-13 16:20:00,62.8,25.1,30.31,East,90,0.0,6.9,24,0.00,,,0.00,WUHU21623XXSP,2013-02-14 00:20:00,
2013-02-13 16:25:00,62.8,25.1,30.31,North,0,1.8,2.0,24,0.00,,,0.00,WUHU21623XXSP,2013-02-14 00:25:00,
2013-02-13 16:30:00,62.4,23.8,30.31,NE,45,0.0,3.4,23,0.00,,,0.00,WUHU21623XXSP,2013-02-14 00:30:00,
2013-02-13 16:35:00,62.4,23.8,30.31,NE,45,0.0,3.4,23,0.00,,,0.00,WUHU21623XXSP,2013-02-14 00:35:00,
2013-02-13 16:41:00,62.2,23.6,30.31,ENE,67,5.1,5.1,23,0.00,,,0.00,WUHU21623XXSP,2013-02-14 00:41:00,
2013-02-13 16:46:00,61.7,23.2,30.31,NE,45,0.0,5.1,23,0.00,,,0.00,WUHU21623XXSP,2013-02-14 00:46:00,
2013-02-13 16:51:00,61.7,24.2,30.31,North,0,0.0,4.7,24,0.00,,,0.00,WUHU21623XXSP,2013-02-14 00:51:00,
2013-02-13 16:56:00,61.9,24.3,30.31,NE,45,1.3,1.6,24,0.00,,,0.00,WUHU21623XXSP,2013-02-14 00:56:00,
2013-02-13 17:01:00,61.5,23.0,30.31,NE,45,0.0,1.3,23,0.00,,,0.00,WUHU21623XXSP,2013-02-14 01:01:00,
2013-02-13 17:06:00,61.0,22.6,30.31,ESE,112,0.0,1.1,23,0.00,,,0.00,WUHU21623XXSP,2013-02-14 01:06:00,
2013-02-13 17:11:00,60.6,22.3,30.31,NNE,22,1.3,2.0,23,0.00,,,0.00,WUHU21623XXSP,2013-02-14 01:11:00,
2013-02-13 17:16:00,60.1,20.8,30.31,NNW,337,0.0,3.8,22,0.00,,,0.00,WUHU21623XXSP,2013-02-14 01:16:00,
2013-02-13 17:21:00,59.9,21.6,30.31,North,0,0.0,3.8,23,0.00,,,0.00,WUHU21623XXSP,2013-02-14 01:21:00,
2013-02-13 17:26:00,59.4,22.2,30.31,North,0,0.0,0.0,24,0.00,,,0.00,WUHU21623XXSP,2013-02-14 01:26:00,
2013-02-13 17:31:00,58.8,21.7,30.31,NNE,22,0.0,0.0,24,0.00,,,0.00,WUHU21623XXSP,2013-02-14 01:31:00,
2013-02-13 17:36:00,58.3,21.2,30.31,North,0,0.0,0.0,24,0.00,,,0.00,WUHU21623XXSP,2013-02-14 01:36:00,
2013-02-13 17:41:00,57.7,20.8,30.31,North,0,0.0,0.0,24,0.00,,,0.00,WUHU21623XXSP,2013-02-14 01:41:00,
2013-02-13 17:46:00,57.0,20.2,30.31,NW,315,0.0,0.0,24,0.00,,,0.00,WUHU21623XXSP,2013-02-14 01:46:00,
2013-02-13 17:51:00,56.1,20.4,30.31,NW,315,0.9,0.9,25,0.00,,,0.00,WUHU21623XXSP,2013-02-14 01:51:00,
2013-02-13 17:56:00,55.2,19.6,30.31,West,270,0.0,1.1,25,0.00,,,0.00,WUHU21623XXSP,2013-02-14 01:56:00,
2013-02-13 18:01:00,55.0,20.4,30.31,WNW,292,0.0,1.1,26,0.00,,,0.00,WUHU21623XXSP,2013-02-14 02:01:00,
2013-02-13 18:06:00,54.3,19.8,30.31,ENE,67,0.0,0.0,26,0.00,,,0.00,WUHU21623XXSP,2013-02-14 02:06:00,
2013-02-13 18:11:00,54.1,20.6,30.30,East,90,0.0,0.0,27,0.00,,,0.00,WUHU21623XXSP,2013-02-14 02:11:00,
2013-02-13 18:16:00,53.8,20.3,30.30,NW,315,0.0,0.0,27,0.00,,,0.00,WUHU21623XXSP,2013-02-14 02:16:00,
2013-02-13 18:21:00,53.4,20.0,30.30,WSW,247,0.0,0.0,27,0.00,,,0.00,WUHU21623XXSP,2013-02-14 02:21:00,
2013-02-13 18:26:00,53.4,20.0,30.30,NW,315,0.0,0.0,27,0.00,,,0.00,WUHU21623XXSP,2013-02-14 02:26:00,
2013-02-13 18:31:00,52.9,20.4,30.31,WNW,292,1.6,1.6,28,0.00,,,0.00,WUHU21623XXSP,2013-02-14 02:31:00,
2013-02-13 18:36:00,51.6,19.3,30.30,NW,315,1.3,2.5,28,0.00,,,0.00,WUHU21623XXSP,2013-02-14 02:36:00,
2013-02-13 18:41:00,51.1,18.9,30.30,NW,315,0.0,2.5,28,0.00,,,0.00,WUHU21623XXSP,2013-02-14 02:41:00,
2013-02-13 18:46:00,50.5,18.4,30.30,North,0,0.0,0.0,28,0.00,,,0.00,WUHU21623XXSP,2013-02-14 02:46:00,
2013-02-13 18:51:00,49.6,18.5,30.29,NE,45,0.0,0.0,29,0.00,,,0.00,WUHU21623XXSP,2013-02-14 02:51:00,
2013-02-13 18:56:00,49.1,18.1,30.30,West,270,0.0,0.0,29,0.00,,,0.00,WUHU21623XXSP,2013-02-14 02:56:00,
2013-02-13 19:01:00,48.4,17.5,30.30,NW,315,0.0,0.0,29,0.00,,,0.00,WUHU21623XXSP,2013-02-14 03:01:00,
2013-02-13 19:06:00,47.1,17.3,30.30,NW,315,0.0,0.0,30,0.00,,,0.00,WUHU21623XXSP,2013-02-14 03:06:00,
2013-02-13 19:11:00,46.6,16.9,30.30,West,270,0.0,0.9,30,0.00,,,0.00,WUHU21623XXSP,2013-02-14 03:11:00,
2013-02-13 19:16:00,46.0,17.0,30.30,WNW,292,0.0,0.9,31,0.00,,,0.00,WUHU21623XXSP,2013-02-14 03:16:00,
2013-02-13 19:21:00,45.1,16.2,30.30,North,0,0.0,0.0,31,0.00,,,0.00,WUHU21623XXSP,2013-02-14 03:21:00,
2013-02-13 19:26:00,45.0,16.7,30.30,North,0,0.0,0.0,32,0.00,,,0.00,WUHU21623XXSP,2013-02-14 03:26:00,
2013-02-13 19:31:00,44.8,16.7,30.30,North,0,0.0,0.0,32,0.00,,,0.00,WUHU21623XXSP,2013-02-14 03:31:00,
2013-02-13 19:36:00,44.2,16.1,30.30,NW,315,0.0,0.0,32,0.00,,,0.00,WUHU21623XXSP,2013-02-14 03:36:00,
2013-02-13 19:41:00,43.9,15.8,30.30,ESE,112,0.0,0.0,32,0.00,,,0.00,WUHU21623XXSP,2013-02-14 03:41:00,
2013-02-13 19:46:00,43.7,16.3,30.30,ENE,67,0.0,0.0,33,0.00,,,0.00,WUHU21623XXSP,2013-02-14 03:46:00,
2013-02-13 19:52:00,43.3,15.9,30.30,NNW,337,2.9,2.9,33,0.00,,,0.00,WUHU21623XXSP,2013-02-14 03:52:00,
2013-02-13 19:57:00,43.2,15.8,30.31,North,0,2.9,2.9,33,0.00,,,0.00,WUHU21623XXSP,2013-02-14 03:57:00,
2013-02-13 20:02:00,43.3,16.6,30.30,WNW,292,0.0,2.9,34,0.00,,,0.00,WUHU21623XXSP,2013-02-14 04:02:00,
2013-02-13 20:07:00,43.3,16.6,30.30,SE,135,0.0,0.0,34,0.00,,,0.00,WUHU21623XXSP,2013-02-14 04:07:00,
2013-02-13 20:12:00,43.0,16.3,30.30,North,0,0.0,0.0,34,0.00,,,0.00,WUHU21623XXSP,2013-02-14 04:12:00,
2013-02-13 20:17:00,42.4,15.8,30.30,West,270,0.0,0.0,34,0.00,,,0.00,WUHU21623XXSP,2013-02-14 04:17:00,
2013-02-13 20:22:00,42.1,16.2,30.30,NW,315,0.0,0.0,35,0.00,,,0.00,WUHU21623XXSP,2013-02-14 04:22:00,
2013-02-13 20:27:00,41.7,15.9,30.31,NW,315,0.0,0.0,35,0.00,,,0.00,WUHU21623XXSP,2013-02-14 04:27:00,
2013-02-13 20:32:00,41.4,15.6,30.30,NW,315,0.0,0.0,35,0.00,,,0.00,WUHU21623XXSP,2013-02-14 04:32:00,
2013-02-13 20:37:00,41.4,15.6,30.30,NE,45,0.0,0.0,35,0.00,,,0.00,WUHU21623XXSP,2013-02-14 04:37:00,
2013-02-13 20:42:00,41.4,15.6,30.31,ESE,112,0.0,0.0,35,0.00,,,0.00,WUHU21623XXSP,2013-02-14 04:42:00,
2013-02-13 20:47:00,40.8,15.7,30.31,NW,315,0.0,0.0,36,0.00,,,0.00,WUHU21623XXSP,2013-02-14 04:47:00,
2013-02-13 20:52:00,40.5,15.4,30.31,NNW,337,0.0,0.0,36,0.00,,,0.00,WUHU21623XXSP,2013-02-14 04:52:00,
2013-02-13 20:57:00,40.3,15.3,30.31,NW,315,0.0,0.0,36,0.00,,,0.00,WUHU21623XXSP,2013-02-14 04:57:00,
2013-02-13 21:00:00,39.9,15.6,30.31,NW,315,0.0,0.0,37,0.00,,,0.00,WUHU21623XXSP,2013-02-14 05:00:00,
2013-02-13 21:05:00,39.9,15.6,30.31,NW,315,0.0,0.0,37,0.00,,,0.00,WUHU21623XXSP,2013-02-14 05:05:00,
2013-02-13 21:10:00,39.6,15.3,30.31,NNW,337,2.0,3.1,37,0.00,,,0.00,WUHU21623XXSP,2013-02-14 05:10:00,
2013-02-13 21:15:00,39.7,15.4,30.31,NW,315,0.0,3.1,37,0.00,,,0.00,WUHU21623XXSP,2013-02-14 05:15:00,
2013-02-13 21:20:00,39.9,15.6,30.31,WNW,292,0.0,2.0,37,0.00,,,0.00,WUHU21623XXSP,2013-02-14 05:20:00,
2013-02-13 21:25:00,39.9,15.6,30.31,NNW,337,0.0,0.7,37,0.00,,,0.00,WUHU21623XXSP,2013-02-14 05:25:00,
2013-02-13 21:30:00,39.7,16.1,30.31,WNW,292,0.0,0.0,38,0.00,,,0.00,WUHU21623XXSP,2013-02-14 05:30:00,
2013-02-13 21:35:00,39.4,15.7,30.31,NNW,337,0.0,0.0,38,0.00,,,0.00,WUHU21623XXSP,2013-02-14 05:35:00,
2013-02-13 21:40:00,39.4,15.7,30.31,NNW,337,0.0,0.0,38,0.00,,,0.00,WUHU21623XXSP,2013-02-14 05:40:00,
2013-02-13 21:46:00,39.0,15.4,30.31,North,0,0.0,0.0,38,0.00,,,0.00,WUHU21623XXSP,2013-02-14 05:46:00,
2013-02-13 21:51:00,38.8,15.3,30.31,WNW,292,0.0,0.0,38,0.00,,,0.00,WUHU21623XXSP,2013-02-14 05:51:00,
2013-02-13 21:56:00,38.5,15.6,30.31,NE,45,0.0,0.0,39,0.00,,,0.00,WUHU21623XXSP,2013-02-14 05:56:00,
2013-02-13 22:01:00,38.5,15.6,30.31,NW,315,0.0,0.0,39,0.00,,,0.00,WUHU21623XXSP,2013-02-14 06:01:00,
2013-02-13 22:06:00,38.3,15.4,30.31,SSE,157,0.0,0.0,39,0.00,,,0.00,WUHU21623XXSP,2013-02-14 06:06:00,
2013-02-13 22:11:00,37.9,15.7,30.31,North,0,2.5,2.9,40,0.00,,,0.00,WUHU21623XXSP,2013-02-14 06:11:00,
2013-02-13 22:16:00,37.9,15.7,30.31,West,270,0.0,2.9,40,0.00,,,0.00,WUHU21623XXSP,2013-02-14 06:16:00,
2013-02-13 22:21:00,37.9,15.7,30.31,North,0,0.0,1.3,40,0.00,,,0.00,WUHU21623XXSP,2013-02-14 06:21:00,
2013-02-13 22:26:00,37.9,15.7,30.31,West,270,0.0,1.3,40,0.00,,,0.00,WUHU21623XXSP,2013-02-14 06:26:00,
2013-02-13 22:31:00,37.9,15.7,30.31,West,270,0.0,0.0,40,0.00,,,0.00,WUHU21623XXSP,2013-02-14 06:31:00,
2013-02-13 22:36:00,37.8,15.6,30.30,WNW,292,0.0,0.0,40,0.00,,,0.00,WUHU21623XXSP,2013-02-14 06:36:00,
2013-02-13 22:41:00,37.6,15.4,30.31,NW,315,0.0,0.0,40,0.00,,,0.00,WUHU21623XXSP,2013-02-14 06:41:00,
2013-02-13 22:46:00,37.4,15.8,30.30,NW,315,0.0,0.0,41,0.00,,,0.00,WUHU21623XXSP,2013-02-14 06:46:00,
2013-02-13 22:51:00,37.2,15.6,30.31,NNW,337,0.0,0.0,41,0.00,,,0.00,WUHU21623XXSP,2013-02-14 06:51:00,
2013-02-13 22:56:00,37.0,15.5,30.30,NNW,337,0.0,0.0,41,0.00,,,0.00,WUHU21623XXSP,2013-02-14 06:56:00,
2013-02-13 23:01:00,36.9,15.3,30.31,NW,315,0.0,0.0,41,0.00,,,0.00,WUHU21623XXSP,2013-02-14 07:01:00,
2013-02-13 23:06:00,36.7,15.1,30.30,North,0,0.0,0.0,41,0.00,,,0.00,WUHU21623XXSP,2013-02-14 07:06:00,
2013-02-13 23:11:00,36.7,15.7,30.31,NW,315,0.0,0.0,42,0.00,,,0.00,WUHU21623XXSP,2013-02-14 07:11:00,
2013-02-13 23:16:00,36.3,15.3,30.31,NW,315,0.0,0.0,42,0.00,,,0.00,WUHU21623XXSP,2013-02-14 07:16:00,
2013-02-13 23:21:00,36.1,15.7,30.31,NW,315,0.0,0.0,43,0.00,,,0.00,WUHU21623XXSP,2013-02-14 07:21:00,
2013-02-13 23:26:00,36.0,15.5,30.31,WNW,292,0.0,0.0,43,0.00,,,0.00,WUHU21623XXSP,2013-02-14 07:26:00,
2013-02-13 23:31:00,36.0,15.5,30.30,NNW,337,0.0,0.0,43,0.00,,,0.00,WUHU21623XXSP,2013-02-14 07:31:00,
2013-02-13 23:36:00,36.0,16.1,30.30,WNW,292,0.0,0.0,44,0.00,,,0.00,WUHU21623XXSP,2013-02-14 07:36:00,
2013-02-13 23:41:00,35.8,15.9,30.31,WNW,292,1.3,1.3,44,0.00,,,0.00,WUHU21623XXSP,2013-02-14 07:41:00,
2013-02-13 23:46:00,35.8,15.9,30.30,WNW,292,1.3,1.3,45,0.00,,,0.00,WUHU21623XXSP,2013-02-14 07:46:00,
2013-02-13 23:51:00,35.8,16.4,30.30,NNW,337,0.0,1.3,45,0.00,,,0.00,WUHU21623XXSP,2013-02-14 07:51:00,
2013-02-13 23:56:00,35.8,16.4,30.30,WNW,292,0.0,0.0,45,0.00,,,0.00,WUHU21623XXSP,2013-02-14 07:56:00,